This is the latest recevied weather packets stored in our database for station/object KB3FKJ. If no packets are shown the sender has not sent any weather packets the latest 10 day(s).
| Time | Temp. | Humidity | Pressure | Rain* | Wind** | Luminosity | Snow |
|---|---|---|---|---|---|---|---|
| 1777306029 | 16.67° C | 58% | 1023.4 hPa | 0 mm | - | 36 W/m² | - |
| 1777305727 | 16.11° C | 62% | 1023.6 hPa | 0 mm | - | 33 W/m² | - |
| 1777305423 | 15.56° C | 62% | 1023.7 hPa | 0 mm | - | 32 W/m² | - |
| 1777305117 | 16.11° C | 69% | 1023.6 hPa | 0 mm | - | 31 W/m² | - |
| 1777304811 | 15.56° C | 64% | 1023.6 hPa | 0 mm | - | 31 W/m² | - |
| 1777304509 | 15.56° C | 66% | 1023.6 hPa | 0 mm | - | 37 W/m² | - |
| 1777304207 | 15.56° C | 65% | 1023.7 hPa | 0 mm | - | 31 W/m² | - |
| 1777303903 | 15.56° C | 67% | 1023.7 hPa | 0 mm | - | 32 W/m² | - |
| 1777303600 | 15° C | 64% | 1023.8 hPa | 0 mm | - | 30 W/m² | - |
| 1777303298 | 15° C | 68% | 1023.6 hPa | 0 mm | - | 29 W/m² | - |
| 1777302996 | 14.44° C | 66% | 1024 hPa | 0 mm | - | 36 W/m² | - |
| 1777302692 | 15° C | 68% | 1023.7 hPa | 0 mm | - | 56 W/m² | - |
| 1777302391 | 15° C | 68% | 1023.8 hPa | 0 mm | - | 35 W/m² | - |
| 1777302088 | 14.44° C | 70% | 1023.8 hPa | 0 mm | - | 38 W/m² | - |
| 1777301786 | 13.89° C | 69% | 1023.7 hPa | 0 mm | - | 31 W/m² | - |
| 1777301483 | 13.89° C | 69% | 1024 hPa | 0 mm | - | 31 W/m² | - |
| 1777301180 | 13.33° C | 71% | 1024 hPa | 0 mm | - | 31 W/m² | - |
| 1777300877 | 13.33° C | 70% | 1024 hPa | 0 mm | - | 30 W/m² | - |
| 1777300575 | 13.33° C | 70% | 1024.2 hPa | 0 mm | - | 33 W/m² | - |
| 1777300272 | 13.89° C | 71% | 1024.1 hPa | 0 mm | - | 32 W/m² | - |
| 1777299968 | 13.33° C | 71% | 1024.2 hPa | 0 mm | - | 56 W/m² | - |
| 1777299665 | 13.33° C | 72% | 1024.2 hPa | 0 mm | - | 137 W/m² | - |
| 1777299363 | 13.33° C | 73% | 1024.4 hPa | 0 mm | - | 125 W/m² | - |
| 1777299061 | 12.78° C | 74% | 1024.3 hPa | 0 mm | - | 187 W/m² | - |
| 1777298757 | 12.78° C | 74% | 1024.2 hPa | 0 mm | - | 237 W/m² | - |
* Rain latest hour (hover to see other rain measurements)
** Current wind speed in m/s (hover to see current wind gust speed)